Regional Weather Roundup
Issued by NWS

Home | Current Version | Previous Version | Graphics & Text | Print | Product List | Glossary On
Versions: 1 2 3 4 5 6 7 8 9 10 11 12 13 14 15 16 17 18 19 20 21 22 23 24 25 26 27 28 29 30 31 32 33 34 35 36 37 38 39 40 41 42 43 44 45 46 47 48 49 50
178
ASUS43 KLOT 280609
RWRIL

ILLINOIS REGIONAL WEATHER ROUNDUP
NATIONAL WEATHER SERVICE CHICAGO/ROMEOVILLE IL
100 AM CDT THU JUL 28 2016

NOTE: "FAIR" INDICATES FEW OR NO CLOUDS BELOW 12,000 FEET WITH NO
SIGNIFICANT WEATHER AND/OR OBSTRUCTIONS TO VISIBILITY.

* THESE STATIONS ARE NOT UNDER NWS QUALITY CONTROL. THEY ALSO MAY NOT
  REPORT WEATHER SUCH AS PRECIPITATION OR FOG.

ILZ001-002-007-009-015-016-024-280700-
NORTHWEST ILLINOIS

CITY           SKY/WX    TMP DP  RH WIND       PRES   REMARKS
MOLINE         MOCLDY    74  68  81 CALM      29.91F
6HR MIN TEMP:  73; 6HR MAX TEMP:  85;

STERLING*      CLEAR     70  70 100 E3        29.93F FOG
SAVANNA*       MOCLDY    71  69  96 CALM      29.92F
$$

ILZ003-004-008-010-011-017-018-280700-
NORTH CENTRAL ILLINOIS

CITY           SKY/WX    TMP DP  RH WIND       PRES   REMARKS
ROCKFORD       PTCLDY    71  67  87 CALM      29.95S
6HR MIN TEMP:  70; 6HR MAX TEMP:  84;

FREEPORT*      CLEAR     68  67  95 E5        29.96F
ROCHELLE*      CLEAR     69  68  97 CALM      29.95S
DE KALB*       CLEAR     70  68  93 CALM      29.96S
$$

ILZ005-006-012>014-019>023-280700-
NORTHEAST ILLINOIS

CITY           SKY/WX    TMP DP  RH WIND       PRES   REMARKS
CHICAGO-OHARE  PTCLDY    74  66  76 CALM      29.93F
6HR MIN TEMP:  74; 6HR MAX TEMP:  83;

CHICAGO-MIDWAY PTCLDY    79  66  64 E3        29.93S HX  81
6HR MIN TEMP:  79; 6HR MAX TEMP:  84;

AURORA         PTCLDY    70  67  90 CALM      29.94S
6HR MIN TEMP:  70; 6HR MAX TEMP:  84;

LANSING*       CLEAR     74  66  77 CALM      29.94S
JOLIET*        CLEAR     70  69  95 CALM      29.94S
WAUKEGAN       CLOUDY    74  72  93 CALM      29.93F
6HR MIN TEMP:  74; 6HR MAX TEMP:  81;

DUPAGE AIRPORT CLEAR     71  65  81 CALM      29.94S
6HR MIN TEMP:  71; 6HR MAX TEMP:  83;

KANKAKEE*      PTCLDY    71  68  91 E3        29.93F
WHEELING       CLEAR     73  67  81 S3        29.94F
6HR MIN TEMP:  72; 6HR MAX TEMP:  83; 6HR PCP: TRACE;

MORRIS*        CLEAR     71  69  95 CALM      29.93S
ROMEOVILLE*    CLEAR     69  65  86 CALM      29.94S
NORTHERLY ISL    N/A     74  68  81 S6          N/A
$$

LMZ740>746-280700-
SOUTHERN LAKE MICHIGAN

STATION/POSITION SKY/WX   TEMP    WIND        PRES    VSBY  WAVE
                          AIR SEA DIR/SP/G                  HT/PER
                          (F)     (DEG/KT/KT) (MB)    (MI)  (FT/S)
SOUTHERN BUOY              76 75  220/  4/  4 1012.9F         0
WILMETTE HARBOR            74 74  170/  4/  4   N/A           1/ 2
HARRISON CRIB              78     160/  9/ 11   N/A
BURNHAM HARBOR             74     170/  5/  5   N/A
CALUMET HARBOR             76     120/  6/  8 1013.3F
BURNS HARBOR               78     140/  2/ 25 1014.2F
MICHIGAN CITY              76     110/  2/  3   N/A
MICHIGAN CITY 6N           77 77  100/  2/  2   N/A           0
ST. JOSEPH                 77 79  220/  2/  4 1013.1F         0
$$

ILZ025>027-034>036-040-047-049-050-058-095>099-280700-
WEST-CENTRAL ILLINOIS

CITY           SKY/WX    TMP DP  RH WIND       PRES   REMARKS
QUINCY         CLOUDY    73  71  93 E7        29.92S
GALESBURG*     CLEAR     72  71  96 CALM      29.93S
MACOMB*        MOCLDY    70  69  96 CALM      29.95S
JACKSONVILLE*  CLOUDY    71  68  90 CALM      29.92S
PITTSFIELD*    CLOUDY    74  70  86 CALM      29.94S
$$

ILZ028>032-037-038-041>044-048-051>054-059>061-280700-
CENTRAL ILLINOIS

CITY           SKY/WX    TMP DP  RH WIND       PRES   REMARKS
BLOOMINGTON    CLOUDY    74  69  85 S5        29.94F
DECATUR        PTCLDY    74  70  87 N5        29.93F
PEORIA         CLOUDY    75  71  87 CALM      29.93F
6HR MIN TEMP:  75; 6HR MAX TEMP:  84;

LACON*         CLEAR     74  69  86 CALM      29.92F
LINCOLN*       CLOUDY    75  73  92 CALM      29.93S
SPRINGFIELD    CLOUDY    78  75  90 CALM      29.92F HX  81
6HR MIN TEMP:  76; 6HR MAX TEMP:  84;

TAYLORVILLE    PTCLDY    74  74  98 MISG      29.92F
6HR MIN TEMP:  74; 6HR MAX TEMP:  82;

$$

ILZ033-039-045-046-055>057-062-063-280700-
EAST-CENTRAL ILLINOIS

CITY           SKY/WX    TMP DP  RH WIND       PRES   REMARKS
CHAMPAIGN      CLEAR     71  68  90 SE5       29.94F
MATTOON        PTCLDY    73  71  93 N3        29.94F
PARIS*         MOCLDY    71  71 100 CALM      29.94F
$$

ILZ079-100>102-280700-
SOUTHWEST ILLINOIS

CITY           SKY/WX    TMP DP  RH WIND       PRES   REMARKS
ALTON          CLOUDY    77  74  93 SW6       29.93F
BELLEVILLE     CLOUDY    77  75  95 CALM      29.91F
CAHOKIA*       CLOUDY    78  74  87 E6        29.91F THUNDER HX  81
SPARTA*        CLOUDY    75  71  86 SW5       29.93F
$$

ILZ064>066-069>071-074>076-080>082-084>086-088>090-092>094-280700-
SOUTH-CENTRAL ILLINOIS

CITY           SKY/WX    TMP DP  RH WIND       PRES   REMARKS
CARBONDALE     CLOUDY    74  71  91 S7        29.92F
6HR MIN TEMP:  74; 6HR MAX TEMP:  77; 6HR PCP: TRACE;

CAIRO*         LGT RAIN  73  73  99 CALM      29.91S
EFFINGHAM*     MOCLDY    75  75 100 CALM      29.95F FOG
MARION         CLOUDY    75  73  94 S6        29.93S
MT. VERNON     MOCLDY    73  70  88 MISG      29.91F
CENTRALIA*     MOCLDY    75  73  94 SW3       29.92F
SALEM*         CLOUDY    76  72  86 SW5       29.93F
METROPOLIS*    LGT RAIN  73  72  97 CALM      29.92S
$$

ILZ067-068-072-073-078-083-087-091-280700-
SOUTHEAST ILLINOIS

CITY           SKY/WX    TMP DP  RH WIND       PRES   REMARKS
LAWRENCEVILLE  TSTM      76  74  93 W3        29.92F FOG
FLORA*         CLOUDY    78  76  95 W3        29.93F HX  80
FAIRFIELD*     CLOUDY    75  74  96 CALM      29.91S
HARRISBURG*    CLOUDY    74  73  96 CALM      29.92F
ROBINSON*      CLOUDY    75  73  95 CALM      29.93F
CARMI*         CLOUDY    73  73 100 CALM      29.92S
$$

ABBREVIATIONS USED IN REMARKS
   TC - TEMPERATURE IN CELSIUS
  WCI - WIND CHILL INDEX
   HX - HEAT INDEX
  VSB - VISIBILITY
$$





USA.gov is the U.S. government's official web portal to all federal, state and local government web resources and services.